Weather History for Kalamazoo, MI

Change the Weather History Date:

Wednesday, January 29, 2014

  Actual Average Record
Temperature  
Mean Temperature 8 °F 24 °F  
Max Temperature 17 °F 31 °F 58 °F (2013)
Min Temperature -2 °F 18 °F -9 °F (1966)
Degree Days  
Heating Degree Days 57 41  
Month to date heating degree days 1189 1181  
Since 1 July heating degree days 3696 3632  
Cooling Degree Days 0 0  
Month to date cooling degree days 0 0  
Year to date cooling degree days 0 0  
Moisture  
Dew Point -3 °F    
Average Humidity 65    
Maximum Humidity 79    
Minimum Humidity 51    
Precipitation  
Precipitation 0.00 in 0.05 in 0.72 in (2013)
Month to date precipitation 1.10 1.68  
Year to date precipitation 1.10 1.68  
Sea Level Pressure  
Sea Level Pressure 30.17 in    
Wind  
Wind Speed 12 mph (SW)    
Max Wind Speed 22 mph    
Max Gust Speed 28 mph    
Visibility 8 miles    
Events Snow    
T = Trace of Precipitation, MM = Missing Value Source: NWS Daily Summary

Daily Weather History Graph

Daily Weather History Graph

Search for Another Location

Airport:

Trip Planner

Search our weather history database for the weather conditions in past years. The results will help you decide how hot, cold, wet, or windy it might be!

Date:

Astronomy

Jan. 29, 2014 Rise Set
Actual Time 7:58 AM EST 5:52 PM EST
Civil Twilight 7:28 AM EST 6:22 PM EST
Nautical Twilight 6:54 AM EST 6:56 PM EST
Astronomical Twilight 6:21 AM EST 7:29 PM EST
Moon 6:34 AM EST (1/29) 4:51 PM EST (1/29)
Length of Visible Light 10h 54m
Length of Day
9h 54m
Waning Crescent, 2% of the Moon is Illuminated
Jan 29
Waning Crescent
Jan 30
New
Feb 6
First Quarter
Feb 14
Full
Feb 22
Last Quarter

Hourly Weather History & Observations

Time (EST) Temp. Windchill Dew Point Humidity Pressure Visibility Wind Dir Wind Speed Gust Speed Precip Events Conditions
12:37 AM -0.4 °F -17.6 °F -5.8 °F 78% 30.15 in 2.5 mi SW 11.5 mph - 0.00 in Snow Light Snow
12:53 AM -0.0 °F -18.0 °F -5.1 °F 79% 30.21 in 2.0 mi SW 12.7 mph - 0.00 in Snow Light Snow
1:53 AM 1.9 °F -13.8 °F -4.0 °F 76% 30.19 in 3.0 mi SW 10.4 mph - 0.00 in Snow Light Snow
2:19 AM 1.4 °F -16.1 °F -4.0 °F 78% 30.12 in 3.0 mi SW 12.7 mph - 0.00 in Snow Light Snow
2:38 AM 1.4 °F -16.1 °F -4.0 °F 78% 30.11 in 5.0 mi SW 12.7 mph - 0.00 in   Haze
2:51 AM 1.4 °F -16.1 °F -4.0 °F 78% 30.11 in 8.0 mi SW 12.7 mph - 0.00 in   Overcast
2:53 AM 1.0 °F -16.6 °F -4.0 °F 79% 30.18 in 9.0 mi SW 12.7 mph - 0.00 in   Overcast
3:53 AM 1.0 °F -16.6 °F -5.1 °F 75% 30.18 in 8.0 mi SW 12.7 mph - 0.00 in   Overcast
4:53 AM -0.0 °F -18.0 °F -6.0 °F 76% 30.17 in 5.0 mi SSW 12.7 mph - 0.00 in Snow Light Snow
5:29 AM -0.4 °F -16.7 °F -7.6 °F 72% 30.11 in 7.0 mi SSW 10.4 mph - 0.00 in   Overcast
5:49 AM -2.2 °F -19.9 °F -7.6 °F 78% 30.10 in 10.0 mi SSW 11.5 mph - 0.00 in   Partly Cloudy
5:53 AM -2.0 °F -20.5 °F -7.1 °F 79% 30.17 in 10.0 mi SSW 12.7 mph - 0.00 in   Partly Cloudy
6:53 AM -0.0 °F -18.0 °F -6.0 °F 76% 30.17 in 10.0 mi SW 12.7 mph - N/A   Clear
7:41 AM -0.4 °F -17.6 °F -5.8 °F 78% 30.11 in 10.0 mi SW 11.5 mph - N/A   Mostly Cloudy
7:53 AM -0.0 °F -17.1 °F -6.0 °F 76% 30.18 in 10.0 mi SW 11.5 mph - N/A   Mostly Cloudy
8:53 AM 1.9 °F -15.5 °F -5.1 °F 72% 30.18 in 10.0 mi SW 12.7 mph - N/A   Partly Cloudy
9:53 AM 3.9 °F -13.0 °F -4.0 °F 70% 30.20 in 10.0 mi SW 12.7 mph - N/A   Scattered Clouds
10:53 AM 8.1 °F -7.7 °F -0.9 °F 67% 30.20 in 10.0 mi SW 12.7 mph 19.6 mph N/A   Scattered Clouds
11:53 AM 10.9 °F -4.7 °F 1.0 °F 64% 30.20 in 10.0 mi WSW 13.8 mph - N/A   Partly Cloudy
12:53 PM 14.0 °F -2.5 °F 3.0 °F 62% 30.19 in 10.0 mi WSW 17.3 mph 23.0 mph N/A   Mostly Cloudy
1:53 PM 16.0 °F 0.6 °F 3.9 °F 59% 30.17 in 10.0 mi WSW 16.1 mph 25.3 mph N/A   Clear
2:53 PM 16.0 °F 0.1 °F 3.0 °F 57% 30.18 in 10.0 mi West 17.3 mph 25.3 mph N/A   Clear
3:53 PM 16.0 °F -0.4 °F 1.9 °F 54% 30.19 in 10.0 mi WSW 18.4 mph 24.2 mph 0.14 in   Clear
4:53 PM 16.0 °F 3.6 °F 1.0 °F 52% 30.19 in 10.0 mi WSW 10.4 mph 19.6 mph N/A   Clear
5:53 PM 15.1 °F 1.8 °F -0.9 °F 49% 30.20 in 10.0 mi SW 11.5 mph - N/A   Clear
6:53 PM 12.9 °F -1.6 °F -0.9 °F 54% 30.19 in 10.0 mi SSW 12.7 mph - N/A   Clear
7:53 PM 7.0 °F -3.3 °F -2.9 °F 64% 30.20 in 10.0 mi South 5.8 mph - N/A   Clear
8:53 PM 10.9 °F -0.8 °F -0.9 °F 59% 30.18 in 10.0 mi South 8.1 mph - N/A   Clear
9:53 PM 8.1 °F -3.2 °F -0.9 °F 67% 30.17 in 10.0 mi South 6.9 mph - N/A   Clear
10:53 PM 9.0 °F -2.2 °F -0.0 °F 67% 30.15 in 10.0 mi South 6.9 mph - N/A   Clear
11:53 PM 7.0 °F -8.3 °F -0.9 °F 70% 30.14 in 10.0 mi South 11.5 mph - N/A   Clear